Wind_Speed
88 90 93 98 103 107 102 104 105 105 109 110 112 111 112 107 107 107 104 101 97 97 99 98 98 97 95 92 89 84 81 73 64 65 64 61 61 60 58 61 59 55 52 48
77 80 82 87 93 96 95 97 98 102 106 108 105 104 105 105 104 102 102 100 97 97 99 97 95 93 91 87 84 79 73 71 64 59 56 53 51 50 53 54 49 49 49 52
69 72 75 76 77 81 85 87 87 92 94 96 98 98 99 101 98 97 94 94 95 95 91 88 88 87 85 79 77 72 67 62 55 51 49 44 42 40 45 43 38 43 49 50
58 61 63 67 72 75 78 79 82 82 84 87 89 90 89 89 89 87 86 85 86 84 84 85 81 82 77 73 70 67 60 52 48 45 44 38 33 36 36 34 37 39 46 45
47 49 52 54 55 59 62 67 69 72 73 74 77 78 78 77 76 75 76 81 79 80 80 76 79 74 70 68 65 57 50 45 43 41 40 35 31 30 32 32 36 46 47 43
37 41 43 43 50 54 56 55 55 57 58 58 61 63 62 64 65 69 73 73 75 76 75 73 72 68 67 62 55 49 44 41 37 37 38 35 28 29 27 30 37 42 45 43
48 51 52 50 53 51 48 44 46 46 49 54 56 54 56 58 63 68 70 70 72 70 69 68 65 65 62 52 45 40 35 33 32 30 31 29 23 27 27 32 35 39 41 40
54 54 53 56 45 39 40 45 46 49 51 52 53 52 55 60 64 65 66 67 68 66 64 63 63 59 50 43 37 34 32 31 29 27 27 27 24 25 27 30 33 37 41 41
61 59 53 52 48 47 45 48 51 55 53 51 54 56 58 59 60 61 63 63 63 63 60 62 58 50 43 35 30 29 29 27 26 25 25 25 22 21 24 28 30 35 36 40
64 60 62 60 56 56 53 55 57 55 54 55 55 55 56 59 56 60 60 61 60 56 57 57 51 43 35 29 27 27 24 23 21 21 20 21 19 20 22 24 26 28 33 40
64 64 63 58 59 58 54 49 49 49 50 50 52 51 54 55 55 55 58 58 55 54 55 50 44 36 29 26 24 23 21 19 18 18 20 20 19 20 22 22 25 29 32 36
65 63 59 56 54 53 54 51 50 52 49 46 47 48 50 51 50 52 56 54 53 55 49 44 35 30 26 24 23 21 18 15 16 16 17 17 18 17 16 19 21 24 28 31
73 74 68 65 61 58 54 51 50 47 45 45 48 49 47 48 50 51 52 50 55 52 44 39 31 27 23 22 21 20 16 14 13 13 13 14 15 13 13 14 16 19 22 27
72 68 69 70 64 60 54 50 48 44 45 45 46 46 48 48 48 49 49 51 53 47 42 35 28 25 20 22 20 19 15 11 10 11 12 13 12 12 13 14 15 18 21 24
71 75 75 71 67 57 50 47 44 43 45 44 46 44 46 46 46 46 48 52 49 42 38 30 26 23 19 19 18 17 14 10 9 10 11 12 12 13 12 14 16 19 21 24
63 63 59 58 57 54 50 49 46 47 47 46 47 45 45 44 44 46 49 49 43 39 34 26 24 22 19 17 19 17 15 10 8 7 9 12 13 14 14 14 16 18 20 21
52 53 52 53 49 49 49 47 47 48 48 47 46 46 45 44 44 47 49 46 39 35 31 25 22 20 18 15 17 19 17 12 10 9 8 10 11 12 11 12 12 13 15 17
47 47 47 46 49 49 48 48 46 46 47 45 44 45 43 44 46 47 49 43 35 31 26 22 20 18 16 15 18 20 17 11 11 11 9 9 10 11 11 11 13 15 14 14
42 41 42 46 47 48 48 46 45 46 46 45 43 42 43 46 47 47 45 41 34 28 25 21 19 18 14 15 17 17 14 11 10 10 9 11 12 14 14 13 14 14 16 16
40 40 43 45 44 44 43 42 44 44 45 44 41 43 44 47 49 46 41 36 33 27 24 21 20 19 14 15 16 16 13 11 10 9 9 11 13 15 13 14 14 15 16 16
43 42 42 43 41 40 38 39 41 44 46 46 44 44 46 51 49 43 39 34 31 27 23 20 21 19 14 14 16 17 13 12 12 13 14 14 15 16 16 17 17 16 17 18
53 50 46 43 40 38 37 39 43 47 51 50 45 46 46 48 47 39 40 34 31 26 22 21 23 20 18 15 15 18 16 16 16 17 18 20 21 19 18 18 19 21 22 22
54 50 46 45 43 41 42 47 50 52 50 49 48 46 46 44 41 39 38 33 31 25 23 22 23 23 23 19 19 19 19 21 20 20 21 19 19 19 20 21 23 23 23 22
53 53 52 50 48 47 50 48 49 51 49 48 49 46 42 40 39 37 35 32 29 27 23 23 22 27 22 19 21 22 25 24 22 18 17 18 19 22 23 22 22 22 22 22
50 50 50 50 47 47 47 45 48 49 49 50 47 41 38 37 34 35 31 29 27 24 23 22 24 26 24 24 25 25 25 22 20 19 20 22 23 24 24 23 22 24 24 25
46 42 43 44 43 44 45 47 48 47 47 46 39 35 39 34 32 30 29 27 25 23 23 23 24 24 25 24 24 25 23 20 21 22 25 25 24 25 25 25 26 27 26 28
39 41 41 43 43 44 44 44 46 44 43 40 34 33 37 28 29 26 27 24 23 24 23 21 22 24 25 24 22 21 22 22 22 23 26 28 28 28 28 28 29 28 29 30
Wind_Direction
243 244 246 246 248 249 247 249 250 251 255 258 259 266 267 270 274 279 282 285 287 288 290 291 294 297 297 298 299 299 298 297 295 287 282 276 273 271 265 261 260 257 253 247
244 244 245 246 248 248 249 252 252 253 256 259 260 263 267 270 274 278 282 285 289 290 289 292 295 295 297 299 299 299 299 297 294 288 282 277 273 268 264 262 260 253 247 243
243 241 242 244 247 251 253 254 255 257 257 259 262 265 268 272 275 280 282 284 286 288 292 294 293 297 298 300 299 300 299 296 293 289 284 279 277 273 265 260 254 247 244 240
241 243 245 246 246 248 251 254 256 257 259 261 264 267 270 273 277 280 283 284 285 290 293 293 298 299 300 300 303 301 298 297 293 287 281 279 272 264 259 250 236 236 241 234
235 236 239 241 243 246 248 251 255 258 261 261 263 267 270 274 277 279 280 281 287 290 293 298 300 301 302 305 303 300 299 296 288 282 278 275 268 265 258 244 236 230 230 229
232 234 236 232 242 244 251 254 257 260 260 263 265 268 272 274 276 277 280 284 288 293 299 300 302 303 306 305 303 300 298 291 288 284 279 273 265 257 253 248 238 231 238 233
223 229 228 232 243 251 254 254 255 256 255 259 267 273 274 274 276 278 282 288 293 298 300 303 304 306 305 305 301 297 293 291 284 277 273 274 266 255 244 235 235 234 235 232
229 235 236 242 248 244 241 246 252 256 263 270 272 273 272 273 276 282 288 294 298 299 305 305 305 307 306 304 299 296 295 293 287 282 275 273 265 253 249 243 234 232 231 229
230 236 237 242 245 245 251 249 251 259 267 271 268 271 275 279 282 288 294 298 300 304 305 307 308 310 308 302 301 301 299 294 290 286 281 279 272 261 242 242 236 233 234 234
232 233 242 246 247 252 259 261 260 264 268 272 271 273 277 281 287 290 294 298 301 304 308 308 309 309 306 303 303 302 297 288 287 281 272 265 262 255 250 245 242 239 231 235
237 238 242 247 249 255 262 262 262 264 269 269 271 275 280 287 289 294 296 299 302 307 308 308 311 306 305 309 305 300 291 287 282 273 266 262 255 246 248 245 240 234 232 232
240 243 245 250 252 256 262 264 265 266 270 272 272 277 283 286 292 296 297 301 306 309 310 310 309 306 308 311 305 299 292 287 283 274 266 262 260 258 249 248 246 243 238 237
240 244 248 249 254 258 260 265 266 265 268 271 274 278 281 286 293 296 298 303 308 308 313 312 311 308 310 311 307 300 289 286 288 280 267 256 252 248 246 245 242 240 239 240
238 242 246 249 254 255 257 259 260 261 265 268 272 278 282 287 291 295 300 305 308 311 314 312 310 306 309 308 303 292 285 287 286 279 267 259 249 238 234 231 229 230 233 238
240 244 243 248 252 250 250 255 256 258 262 268 273 279 285 288 292 295 301 306 306 312 311 308 305 302 303 304 295 284 279 281 284 284 274 263 252 238 228 228 228 227 230 235
235 238 240 244 243 243 251 253 250 257 263 268 274 281 282 287 291 297 302 303 305 310 306 304 300 297 297 294 289 279 271 268 271 273 284 276 259 241 237 232 233 240 249 256
232 234 235 236 239 242 243 247 252 256 262 269 274 279 283 286 290 299 302 301 307 308 301 299 293 288 290 286 281 275 268 259 260 258 252 257 266 260 256 249 249 249 245 242
228 229 230 234 236 238 241 247 253 258 263 267 273 277 281 286 293 300 301 301 305 302 298 292 288 281 281 277 272 268 265 260 257 258 249 246 249 246 246 249 251 249 251 250
227 228 227 229 234 238 243 250 255 260 265 268 271 274 281 289 296 300 299 303 306 300 293 288 278 272 275 274 267 263 253 258 264 270 253 252 254 249 252 255 256 256 257 260
228 230 232 235 238 240 245 253 258 262 263 266 271 277 285 292 296 296 296 301 301 295 286 279 272 269 266 270 269 251 241 251 257 263 254 260 257 261 259 257 259 257 258 263
231 231 233 235 237 241 247 252 255 259 263 268 273 282 289 293 293 296 296 298 295 289 280 274 268 261 263 264 262 245 235 244 247 250 261 264 264 263 258 257 260 266 269 268
231 233 235 239 242 245 248 252 256 260 265 271 279 284 288 288 290 293 293 295 287 283 274 266 260 258 255 247 248 242 239 242 248 249 249 250 251 259 268 272 272 269 269 269
234 238 242 245 249 251 253 255 259 264 272 278 281 283 284 284 287 291 289 287 280 274 263 255 254 254 253 244 242 245 241 245 249 252 257 263 269 269 269 269 268 269 274 280
236 238 240 243 247 249 253 258 264 269 273 276 278 280 281 284 286 284 285 279 270 264 259 253 257 256 253 249 246 243 248 254 261 265 266 265 266 267 270 274 277 280 281 281
231 233 238 243 247 252 257 261 265 270 273 273 273 276 283 279 279 278 279 271 262 260 255 252 252 253 252 249 250 253 257 262 264 264 269 270 273 275 278 281 282 282 281 279
231 235 241 246 250 254 257 260 261 263 265 266 271 277 276 274 275 274 270 266 260 255 252 252 253 253 255 258 258 257 261 262 266 271 274 274 274 276 279 280 279 278 277 278
230 237 240 243 246 247 249 253 258 259 265 269 268 268 267 272 268 263 259 257 254 253 253 255 260 259 258 258 260 259 260 264 267 270 272 274 275 275 277 279 279 279 280 278
Height
10315 10326 10337 10348 10357 10364 10372 10380 10388 10394 10399 10401 10402 10402 10405 10405 10402 10397 10394 10392 10388 10381 10372 10366 10358 10351 10342 10334 10323 10318 10306 10300 10301 10290 10281 10280 10275 10276 10278 10276 10281 10289 10298 10310
10298 10308 10319 10327 10337 10342 10353 10364 10371 10377 10382 10380 10383 10385 10386 10386 10385 10383 10378 10373 10366 10358 10350 10347 10339 10330 10318 10313 10302 10294 10286 10273 10273 10265 10262 10260 10259 10259 10257 10261 10268 10274 10283 10290
10281 10292 10300 10310 10319 10328 10336 10344 10353 10357 10360 10361 10364 10368 10369 10367 10367 10363 10359 10355 10347 10338 10334 10329 10322 10311 10301 10293 10283 10273 10265 10257 10252 10247 10242 10244 10244 10246 10243 10250 10258 10260 10267 10277
10267 10276 10286 10296 10304 10312 10320 10328 10332 10337 10342 10345 10348 10350 10351 10350 10347 10347 10340 10336 10327 10324 10319 10308 10303 10290 10282 10273 10264 10254 10247 10241 10236 10231 10225 10229 10232 10230 10232 10238 10241 10244 10250 10264
10255 10263 10272 10280 10288 10297 10304 10310 10315 10321 10325 10330 10331 10332 10334 10334 10331 10329 10324 10316 10313 10308 10302 10296 10282 10273 10265 10257 10244 10239 10232 10227 10221 10217 10214 10216 10218 10221 10222 10227 10230 10228 10232 10248
10246 10254 10262 10271 10277 10285 10292 10298 10302 10305 10310 10313 10316 10318 10318 10318 10318 10313 10307 10304 10298 10293 10286 10277 10267 10256 10247 10240 10231 10224 10220 10214 10212 10208 10204 10206 10209 10210 10214 10216 10217 10219 10227 10238
10238 10244 10253 10261 10266 10274 10280 10286 10290 10295 10298 10301 10303 10304 10304 10304 10302 10297 10293 10290 10284 10279 10271 10262 10251 10243 10232 10225 10219 10213 10207 10203 10200 10200 10196 10197 10200 10199 10201 10201 10206 10213 10220 10227
10230 10236 10246 10252 10259 10265 10271 10275 10280 10283 10286 10288 10290 10291 10292 10291 10287 10284 10280 10277 10270 10262 10255 10246 10238 10230 10220 10214 10207 10201 10196 10194 10192 10191 10189 10190 10192 10193 10193 10195 10201 10203 10206 10215
10220 10228 10236 10243 10249 10256 10261 10266 10269 10272 10275 10277 10279 10278 10279 10276 10273 10271 10268 10263 10256 10250 10242 10231 10223 10215 10208 10203 10198 10192 10189 10187 10185 10185 10184 10184 10185 10188 10189 10189 10194 10198 10203 10206
10211 10220 10226 10232 10240 10245 10251 10255 10258 10261 10263 10266 10267 10266 10265 10263 10264 10261 10256 10250 10244 10238 10231 10222 10213 10205 10200 10195 10190 10186 10184 10181 10180 10180 10178 10177 10180 10181 10183 10186 10190 10194 10197 10199
10201 10210 10217 10223 10229 10234 10240 10243 10247 10250 10252 10254 10255 10254 10253 10251 10251 10248 10242 10237 10232 10227 10221 10211 10204 10197 10192 10187 10184 10181 10179 10177 10174 10174 10173 10174 10174 10176 10177 10180 10181 10185 10188 10191
10192 10198 10206 10212 10217 10225 10229 10233 10237 10238 10241 10243 10243 10244 10243 10241 10239 10236 10230 10224 10220 10216 10210 10202 10196 10189 10185 10181 10178 10175 10174 10172 10170 10170 10170 10170 10169 10171 10175 10176 10178 10181 10183 10187
10182 10189 10196 10200 10208 10214 10221 10224 10225 10228 10230 10232 10232 10233 10232 10231 10229 10225 10220 10217 10209 10205 10199 10192 10187 10182 10179 10175 10173 10171 10169 10168 10167 10167 10166 10166 10166 10168 10170 10172 10175 10177 10180 10181
10169 10178 10184 10190 10198 10206 10211 10214 10215 10218 10220 10221 10222 10222 10221 10221 10219 10216 10211 10207 10202 10195 10189 10184 10180 10176 10174 10171 10169 10167 10165 10165 10164 10164 10163 10164 10165 10166 10167 10169 10171 10173 10175 10176
10157 10166 10175 10180 10189 10195 10199 10204 10206 10208 10210 10211 10212 10212 10211 10211 10208 10207 10204 10198 10192 10187 10181 10177 10174 10171 10169 10167 10165 10163 10162 10162 10162 10162 10162 10163 10164 10164 10165 10166 10168 10169 10170 10172
10146 10155 10162 10171 10178 10183 10190 10194 10196 10199 10201 10202 10201 10203 10203 10201 10199 10198 10195 10190 10185 10178 10174 10171 10168 10166 10164 10163 10161 10160 10159 10159 10160 10161 10161 10162 10162 10162 10163 10164 10166 10167 10168 10170
10135 10144 10153 10160 10168 10174 10179 10182 10187 10189 10191 10192 10192 10192 10192 10191 10191 10189 10185 10181 10176 10171 10167 10164 10162 10160 10159 10159 10158 10156 10156 10157 10157 10158 10159 10160 10161 10161 10162 10162 10163 10164 10165 10165
10126 10135 10145 10152 10157 10163 10169 10172 10177 10180 10182 10183 10184 10182 10182 10182 10181 10180 10175 10171 10167 10163 10159 10158 10156 10155 10154 10154 10154 10153 10153 10154 10154 10155 10156 10157 10158 10159 10160 10160 10160 10160 10161 10162
10119 10130 10137 10141 10146 10152 10157 10162 10168 10171 10172 10172 10174 10174 10173 10172 10171 10171 10167 10161 10158 10156 10153 10152 10150 10150 10150 10150 10150 10151 10151 10151 10152 10153 10154 10154 10155 10155 10155 10155 10155 10156 10156 10156
10113 10121 10126 10131 10138 10143 10149 10155 10160 10161 10159 10160 10164 10163 10166 10163 10160 10160 10159 10154 10150 10149 10147 10146 10146 10146 10146 10146 10147 10148 10148 10149 10149 10150 10151 10151 10151 10151 10151 10151 10152 10152 10152 10152
10102 10109 10115 10122 10130 10136 10143 10148 10149 10148 10147 10150 10155 10156 10157 10151 10150 10151 10148 10145 10143 10142 10141 10141 10141 10142 10142 10142 10143 10144 10144 10145 10146 10146 10146 10146 10147 10147 10147 10147 10146 10147 10147 10148
10088 10096 10104 10113 10122 10130 10136 10140 10139 10136 10135 10139 10147 10148 10147 10143 10141 10141 10137 10135 10134 10134 10135 10135 10134 10137 10137 10138 10139 10139 10140 10141 10141 10142 10142 10142 10142 10142 10142 10142 10142 10142 10142 10143
10082 10093 10102 10109 10116 10123 10128 10127 10125 10124 10129 10132 10134 10137 10136 10135 10133 10130 10127 10126 10126 10127 10128 10128 10129 10131 10131 10132 10134 10135 10135 10135 10136 10137 10138 10139 10139 10139 10138 10138 10138 10138 10138 10138
10078 10085 10092 10098 10106 10112 10113 10116 10117 10117 10120 10123 10122 10125 10126 10124 10122 10119 10118 10117 10118 10118 10121 10122 10125 10124 10126 10127 10128 10129 10129 10130 10131 10132 10134 10133 10133 10133 10133 10133 10133 10133 10133 10132
10067 10074 10083 10090 10097 10102 10105 10107 10106 10108 10110 10110 10111 10114 10114 10112 10112 10110 10110 10110 10110 10113 10115 10117 10118 10119 10121 10121 10122 10123 10124 10125 10126 10126 10127 10128 10127 10126 10126 10126 10126 10125 10124 10123
10058 10068 10075 10080 10086 10090 10094 10096 10097 10099 10098 10098 10101 10104 10101 10102 10103 10102 10103 10103 10105 10107 10108 10110 10112 10114 10116 10116 10117 10118 10119 10120 10120 10120 10120 10120 10120 10119 10119 10118 10117 10116 10116 10114
10053 10060 10065 10070 10075 10079 10083 10085 10085 10088 10088 10089 10091 10093 10089 10094 10093 10094 10095 10096 10099 10100 10102 10104 10106 10108 10110 10111 10112 10113 10113 10113 10113 10113 10112 10111 10112 10112 10111 10110 10108 10107 10106 10105